N19PA KTPA-KISP

Flight info

Callsign N19PA
Flight time N/A
Altitude 13000
Route TAMPA9 JENIM CAMJO Q109 DFENC KALDA SARDI
Aircraft DA62/L-SDFGRY/C

Departure

Time N/A
Airport Tampa International Airport (KTPA)

Arrival

Time 2026-05-03 22:16
Airport Long Island MacArthur Airport (KISP)
Time Latitude Longitude Altitude Speed Heading
2026-05-03 20:15 35.47895 -77.49224 13110 ft 216 kts 29°
2026-05-03 20:15 35.49071 -77.48081 13105 ft 217 kts 29°
2026-05-03 20:15 35.50250 -77.46933 13104 ft 216 kts 29°
2026-05-03 20:15 35.51448 -77.45766 13104 ft 216 kts 29°
2026-05-03 20:16 35.52619 -77.44625 13221 ft 209 kts 29°
2026-05-03 20:16 35.53767 -77.43508 13103 ft 217 kts 29°
2026-05-03 20:16 35.54959 -77.42347 13098 ft 217 kts 29°
2026-05-03 20:16 35.56148 -77.41186 13098 ft 217 kts 29°
2026-05-03 20:17 35.57329 -77.40035 13099 ft 217 kts 29°
2026-05-03 20:17 35.58510 -77.38882 13100 ft 216 kts 29°
2026-05-03 20:17 35.59706 -77.37715 13100 ft 216 kts 29°
2026-05-03 20:17 35.60885 -77.36564 13100 ft 217 kts 29°
2026-05-03 20:18 35.62064 -77.35412 13099 ft 216 kts 29°
2026-05-03 20:18 35.63239 -77.34264 13100 ft 216 kts 29°
2026-05-03 20:18 35.64415 -77.33115 13101 ft 216 kts 29°
2026-05-03 20:18 35.65587 -77.31967 13101 ft 216 kts 29°
2026-05-03 20:19 35.66766 -77.30816 13097 ft 216 kts 29°
2026-05-03 20:19 35.67937 -77.29668 13101 ft 215 kts 29°
2026-05-03 20:19 35.69103 -77.28526 13099 ft 215 kts 29°
2026-05-03 20:19 35.70275 -77.27379 13102 ft 215 kts 29°
2026-05-03 20:20 35.71446 -77.26232 13100 ft 215 kts 29°
2026-05-03 20:20 35.72615 -77.25086 13105 ft 215 kts 29°
2026-05-03 20:20 35.73782 -77.23941 13109 ft 215 kts 29°
2026-05-03 20:20 35.74949 -77.22797 13110 ft 215 kts 29°
2026-05-03 20:21 35.76116 -77.21651 13108 ft 215 kts 29°
2026-05-03 20:21 35.77285 -77.20504 13109 ft 215 kts 29°
2026-05-03 20:21 35.78453 -77.19357 13110 ft 215 kts 29°
2026-05-03 20:21 35.79619 -77.18211 13112 ft 215 kts 29°
2026-05-03 20:22 35.80786 -77.17064 13109 ft 215 kts 29°
2026-05-03 20:22 35.81952 -77.15917 13112 ft 215 kts 29°
2026-05-03 20:22 35.83120 -77.14769 13114 ft 214 kts 29°
2026-05-03 20:22 35.84284 -77.13624 13110 ft 215 kts 29°
2026-05-03 20:23 35.85452 -77.12473 13109 ft 215 kts 29°
2026-05-03 20:23 35.86623 -77.11320 13112 ft 215 kts 29°
2026-05-03 20:23 35.87809 -77.10153 13106 ft 216 kts 29°
2026-05-03 20:23 35.88966 -77.09012 13108 ft 215 kts 29°
2026-05-03 20:24 35.90151 -77.07843 13113 ft 215 kts 29°
2026-05-03 20:24 35.91323 -77.06688 13107 ft 215 kts 29°
2026-05-03 20:24 35.92526 -77.05631 13109 ft 209 kts 19°
2026-05-03 20:24 35.93765 -77.04755 13107 ft 209 kts 20°
2026-05-03 20:25 35.95041 -77.03825 13109 ft 210 kts 20°
2026-05-03 20:25 35.96284 -77.02921 13109 ft 211 kts 20°
2026-05-03 20:25 35.97568 -77.01989 13107 ft 211 kts 20°
2026-05-03 20:25 35.98817 -77.01082 13105 ft 211 kts 20°
2026-05-03 20:26 36.00098 -77.00153 13107 ft 210 kts 20°
2026-05-03 20:26 36.01354 -76.99240 13106 ft 210 kts 20°
2026-05-03 20:26 36.02614 -76.98325 13105 ft 210 kts 20°
2026-05-03 20:26 36.03877 -76.97408 13105 ft 210 kts 20°
2026-05-03 20:27 36.05140 -76.96489 13105 ft 211 kts 20°
2026-05-03 20:27 36.06401 -76.95571 13106 ft 210 kts 20°
2026-05-03 20:27 36.07661 -76.94654 13110 ft 210 kts 20°
2026-05-03 20:27 36.08922 -76.93738 13105 ft 211 kts 20°
2026-05-03 20:28 36.10184 -76.92818 13104 ft 211 kts 20°
2026-05-03 20:28 36.11447 -76.91898 13106 ft 211 kts 20°
2026-05-03 20:28 36.12710 -76.90978 13103 ft 211 kts 21°
2026-05-03 20:28 36.13968 -76.90059 13105 ft 210 kts 20°
2026-05-03 20:29 36.15231 -76.89140 13104 ft 210 kts 21°
2026-05-03 20:29 36.16490 -76.88220 13104 ft 210 kts 20°
2026-05-03 20:29 36.17747 -76.87304 13106 ft 210 kts 20°
2026-05-03 20:29 36.19002 -76.86387 13105 ft 210 kts 20°
2026-05-03 20:30 36.20259 -76.85469 13107 ft 210 kts 20°
2026-05-03 20:30 36.21515 -76.84551 13103 ft 210 kts 20°
2026-05-03 20:30 36.22776 -76.83631 13098 ft 210 kts 21°
2026-05-03 20:30 36.24033 -76.82710 13100 ft 210 kts 20°
2026-05-03 20:31 36.25307 -76.81779 13103 ft 210 kts 20°
2026-05-03 20:31 36.26545 -76.80873 13103 ft 210 kts 20°
2026-05-03 20:31 36.27820 -76.79940 13106 ft 210 kts 21°
2026-05-03 20:31 36.29081 -76.79017 13102 ft 211 kts 21°
2026-05-03 20:32 36.30344 -76.78092 13101 ft 211 kts 20°
2026-05-03 20:32 36.31590 -76.77178 13102 ft 211 kts 21°
2026-05-03 20:32 36.32873 -76.76237 13103 ft 211 kts 21°
2026-05-03 20:32 36.34129 -76.75315 13101 ft 210 kts 20°
2026-05-03 20:33 36.35386 -76.74392 13101 ft 210 kts 21°
2026-05-03 20:33 36.36649 -76.73467 13100 ft 209 kts 21°
2026-05-03 20:33 36.37914 -76.72539 13098 ft 210 kts 21°
2026-05-03 20:33 36.39165 -76.71620 13100 ft 210 kts 21°
2026-05-03 20:34 36.40429 -76.70691 13098 ft 210 kts 21°
2026-05-03 20:34 36.41681 -76.69769 13098 ft 209 kts 21°
2026-05-03 20:34 36.42934 -76.68849 13102 ft 209 kts 20°
2026-05-03 20:34 36.44187 -76.67927 13099 ft 209 kts 20°
2026-05-03 20:35 36.45458 -76.66991 13101 ft 209 kts 21°
2026-05-03 20:35 36.46711 -76.66069 13102 ft 210 kts 21°
2026-05-03 20:35 36.47965 -76.65146 13101 ft 211 kts 21°
2026-05-03 20:35 36.49230 -76.64213 13098 ft 210 kts 21°
2026-05-03 20:36 36.50487 -76.63287 13103 ft 210 kts 21°
2026-05-03 20:36 36.51744 -76.62361 13096 ft 210 kts 21°
2026-05-03 20:36 36.53003 -76.61430 13098 ft 210 kts 21°
2026-05-03 20:36 36.54259 -76.60504 13096 ft 210 kts 21°
2026-05-03 20:37 36.55106 -76.59880 13097 ft 210 kts 20°
2026-05-03 20:37 36.56365 -76.58949 13099 ft 210 kts 21°
2026-05-03 20:37 36.57624 -76.58019 13095 ft 210 kts 21°
2026-05-03 20:37 36.58883 -76.57090 13097 ft 210 kts 21°
2026-05-03 20:38 36.60138 -76.56161 13096 ft 210 kts 21°
2026-05-03 20:38 36.61393 -76.55234 13098 ft 210 kts 21°
2026-05-03 20:38 36.62648 -76.54305 13096 ft 210 kts 21°
2026-05-03 20:38 36.63899 -76.53379 13100 ft 210 kts 21°
2026-05-03 20:39 36.65153 -76.52451 13100 ft 209 kts 21°
2026-05-03 20:39 36.66404 -76.51525 13099 ft 209 kts 21°
2026-05-03 20:39 36.67656 -76.50596 13101 ft 209 kts 20°
2026-05-03 20:39 36.68908 -76.49669 13101 ft 209 kts 21°
2026-05-03 20:40 36.70176 -76.48729 13090 ft 209 kts 21°
2026-05-03 20:40 36.71409 -76.47814 13092 ft 209 kts 21°
2026-05-03 20:40 36.72654 -76.46890 13091 ft 209 kts 21°
2026-05-03 20:40 36.73912 -76.45956 13091 ft 209 kts 21°
2026-05-03 20:41 36.75177 -76.45017 13088 ft 209 kts 21°
2026-05-03 20:41 36.76428 -76.44087 13092 ft 209 kts 21°
2026-05-03 20:41 36.77679 -76.43158 13094 ft 209 kts 21°
2026-05-03 20:41 36.78927 -76.42230 13090 ft 209 kts 21°
2026-05-03 20:42 36.80179 -76.41300 13090 ft 209 kts 21°
2026-05-03 20:42 36.81432 -76.40367 13093 ft 209 kts 21°
2026-05-03 20:42 36.82679 -76.39438 13090 ft 210 kts 21°
2026-05-03 20:42 36.83935 -76.38503 13092 ft 210 kts 21°
2026-05-03 20:43 36.85204 -76.37558 13089 ft 209 kts 21°
2026-05-03 20:43 36.86454 -76.36626 13098 ft 210 kts 21°
2026-05-03 20:43 36.87709 -76.35692 13100 ft 210 kts 21°
2026-05-03 20:43 36.88965 -76.34753 13098 ft 210 kts 21°
2026-05-03 20:44 36.90219 -76.33818 13099 ft 210 kts 21°
2026-05-03 20:44 36.91471 -76.32883 13101 ft 210 kts 21°
2026-05-03 20:44 36.92717 -76.31954 13098 ft 211 kts 21°
2026-05-03 20:44 36.93973 -76.31015 13098 ft 210 kts 21°
2026-05-03 20:45 36.95227 -76.30079 13099 ft 210 kts 21°
2026-05-03 20:45 36.96483 -76.29139 13097 ft 210 kts 21°
2026-05-03 20:45 36.97740 -76.28199 13096 ft 210 kts 21°
2026-05-03 20:45 36.98990 -76.27264 13099 ft 209 kts 21°
2026-05-03 20:46 37.00257 -76.26316 13100 ft 209 kts 20°
2026-05-03 20:46 37.01501 -76.25384 13100 ft 209 kts 21°
2026-05-03 20:46 37.02756 -76.24445 13101 ft 209 kts 21°
2026-05-03 20:46 37.04003 -76.23510 13085 ft 209 kts 21°
2026-05-03 20:47 37.05237 -76.22585 13084 ft 209 kts 21°
2026-05-03 20:47 37.06501 -76.21637 13084 ft 209 kts 21°
2026-05-03 20:47 37.07749 -76.20702 13083 ft 209 kts 21°
2026-05-03 20:47 37.08996 -76.19766 13082 ft 209 kts 21°
2026-05-03 20:48 37.10246 -76.18827 13086 ft 209 kts 21°
2026-05-03 20:48 37.11495 -76.17889 13086 ft 209 kts 21°
2026-05-03 20:48 37.12743 -76.16951 13085 ft 209 kts 21°
2026-05-03 20:48 37.13988 -76.16016 13086 ft 209 kts 21°
2026-05-03 20:49 37.15236 -76.15077 13086 ft 209 kts 21°
2026-05-03 20:49 37.16480 -76.14141 13083 ft 209 kts 21°
2026-05-03 20:49 37.17728 -76.13202 13086 ft 209 kts 21°
2026-05-03 20:49 37.18970 -76.12268 13083 ft 209 kts 21°
2026-05-03 20:50 37.20216 -76.11329 13086 ft 208 kts 21°
2026-05-03 20:50 37.21456 -76.10395 13089 ft 208 kts 21°
2026-05-03 20:50 37.22715 -76.09447 13087 ft 209 kts 21°
2026-05-03 20:50 37.23940 -76.08523 13086 ft 208 kts 21°
2026-05-03 20:51 37.25199 -76.07574 13089 ft 208 kts 21°
2026-05-03 20:51 37.26442 -76.06635 13088 ft 208 kts 21°
2026-05-03 20:51 37.27666 -76.05711 13089 ft 208 kts 21°
2026-05-03 20:51 37.28926 -76.04761 13076 ft 208 kts 21°
2026-05-03 20:52 37.30166 -76.03823 13084 ft 208 kts 21°
2026-05-03 20:52 37.31404 -76.02888 13075 ft 208 kts 21°
2026-05-03 20:52 37.32628 -76.01963 13083 ft 208 kts 21°
2026-05-03 20:52 37.33864 -76.01028 13086 ft 208 kts 21°
2026-05-03 20:53 37.35120 -76.00078 13086 ft 208 kts 21°
2026-05-03 20:53 37.36359 -75.99140 13090 ft 208 kts 21°
2026-05-03 20:53 37.37601 -75.98200 13074 ft 209 kts 21°
2026-05-03 20:53 37.38843 -75.97258 13089 ft 209 kts 21°
2026-05-03 20:54 37.40077 -75.96324 13090 ft 209 kts 21°
2026-05-03 20:54 37.42561 -75.94440 13090 ft 208 kts 21°
2026-05-03 20:54 37.43802 -75.93499 13087 ft 208 kts 21°
2026-05-03 20:55 37.45043 -75.92558 13087 ft 209 kts 21°
2026-05-03 20:55 37.46300 -75.91602 13083 ft 208 kts 21°
2026-05-03 20:55 37.47539 -75.90661 13080 ft 208 kts 21°
2026-05-03 20:55 37.48782 -75.89716 13085 ft 208 kts 21°
2026-05-03 20:56 37.50024 -75.88773 13078 ft 209 kts 21°
2026-05-03 20:56 37.51266 -75.87828 13085 ft 208 kts 21°
2026-05-03 20:56 37.52505 -75.86885 13080 ft 208 kts 21°
2026-05-03 20:56 37.53743 -75.85943 13069 ft 208 kts 21°
2026-05-03 20:57 37.54981 -75.85001 13073 ft 208 kts 21°
2026-05-03 20:57 37.56219 -75.84058 13065 ft 208 kts 21°
2026-05-03 20:57 37.57457 -75.83114 13079 ft 208 kts 21°
2026-05-03 20:57 37.58693 -75.82171 13079 ft 208 kts 21°
2026-05-03 20:58 37.59933 -75.81227 13076 ft 208 kts 21°
2026-05-03 20:58 37.61172 -75.80281 13076 ft 208 kts 21°
2026-05-03 20:58 37.62410 -75.79337 13074 ft 208 kts 21°
2026-05-03 20:58 37.63647 -75.78393 13079 ft 208 kts 21°
2026-05-03 20:59 37.64884 -75.77448 13066 ft 208 kts 21°
2026-05-03 20:59 37.66120 -75.76502 13075 ft 208 kts 21°
2026-05-03 20:59 37.67357 -75.75558 13074 ft 208 kts 21°
2026-05-03 20:59 37.68575 -75.74626 13073 ft 208 kts 21°
2026-05-03 21:00 37.69825 -75.73670 13074 ft 207 kts 21°
2026-05-03 21:00 37.70222 -75.73366 13069 ft 207 kts 21°
2026-05-03 21:00 37.72292 -75.71782 13075 ft 208 kts 21°
2026-05-03 21:00 37.73527 -75.70836 13062 ft 208 kts 21°
2026-05-03 21:01 37.74762 -75.69892 13072 ft 207 kts 21°
2026-05-03 21:01 37.75994 -75.68945 13066 ft 207 kts 21°
2026-05-03 21:01 37.77223 -75.68002 13068 ft 207 kts 21°
2026-05-03 21:01 37.78456 -75.67059 13074 ft 207 kts 21°
2026-05-03 21:02 37.79689 -75.66111 13068 ft 207 kts 21°
2026-05-03 21:02 37.80922 -75.65165 13070 ft 207 kts 21°
2026-05-03 21:02 37.82152 -75.64220 13066 ft 207 kts 21°
2026-05-03 21:02 37.83383 -75.63274 13060 ft 207 kts 21°
2026-05-03 21:03 37.84607 -75.62302 13062 ft 209 kts 25°
2026-05-03 21:03 37.85798 -75.61252 13063 ft 208 kts 24°
2026-05-03 21:03 37.86993 -75.60217 13056 ft 208 kts 24°
2026-05-03 21:03 37.88189 -75.59182 13061 ft 209 kts 24°
2026-05-03 21:04 37.89385 -75.58142 13062 ft 209 kts 24°
2026-05-03 21:04 37.90582 -75.57102 13060 ft 208 kts 24°
2026-05-03 21:04 37.91777 -75.56061 13053 ft 208 kts 24°
2026-05-03 21:04 37.92972 -75.55022 13055 ft 208 kts 24°
2026-05-03 21:05 37.94163 -75.53983 13056 ft 208 kts 24°
2026-05-03 21:05 37.95355 -75.52946 13057 ft 208 kts 24°
2026-05-03 21:05 37.96545 -75.51909 13063 ft 208 kts 24°
2026-05-03 21:05 37.97737 -75.50870 13059 ft 208 kts 24°
2026-05-03 21:06 37.98927 -75.49833 13058 ft 208 kts 24°
2026-05-03 21:06 38.00118 -75.48791 13062 ft 209 kts 24°
2026-05-03 21:06 38.01317 -75.47746 13060 ft 209 kts 24°
2026-05-03 21:06 38.02512 -75.46702 13061 ft 209 kts 24°
2026-05-03 21:07 38.03708 -75.45658 13064 ft 208 kts 24°
2026-05-03 21:07 38.04900 -75.44616 13057 ft 208 kts 24°
2026-05-03 21:07 38.06108 -75.43619 13062 ft 207 kts 22°
2026-05-03 21:07 38.07319 -75.42635 13063 ft 207 kts 22°
2026-05-03 21:08 38.08530 -75.41642 13059 ft 207 kts 22°
2026-05-03 21:08 38.09347 -75.40974 13059 ft 207 kts 22°
2026-05-03 21:08 38.10951 -75.39668 13058 ft 207 kts 22°
2026-05-03 21:08 38.11770 -75.39001 13059 ft 207 kts 22°
2026-05-03 21:09 38.12982 -75.38014 13061 ft 207 kts 22°
2026-05-03 21:09 38.14195 -75.37027 13056 ft 207 kts 22°
2026-05-03 21:09 38.15404 -75.36039 13055 ft 207 kts 22°
2026-05-03 21:09 38.16611 -75.35054 13052 ft 206 kts 22°
2026-05-03 21:10 38.17818 -75.34069 13057 ft 206 kts 22°
2026-05-03 21:10 38.19023 -75.33085 13048 ft 206 kts 22°
2026-05-03 21:10 38.20230 -75.32099 13046 ft 206 kts 22°
2026-05-03 21:10 38.21435 -75.31114 13047 ft 206 kts 22°
2026-05-03 21:11 38.22639 -75.30130 13046 ft 206 kts 22°
2026-05-03 21:11 38.23844 -75.29145 13047 ft 206 kts 22°
2026-05-03 21:11 38.25055 -75.28181 13046 ft 203 kts 17°
2026-05-03 21:11 38.26339 -75.27539 13043 ft 198 kts
2026-05-03 21:12 38.27604 -75.26924 13044 ft 198 kts 10°
2026-05-03 21:12 38.28893 -75.26295 13047 ft 198 kts 10°
2026-05-03 21:12 38.30183 -75.25673 13048 ft 199 kts 10°
2026-05-03 21:12 38.31476 -75.25049 13044 ft 199 kts 10°
2026-05-03 21:13 38.32766 -75.24425 13046 ft 198 kts 10°
2026-05-03 21:13 38.34057 -75.23801 13046 ft 198 kts 10°
2026-05-03 21:13 38.35348 -75.23178 13041 ft 199 kts 10°
2026-05-03 21:13 38.36637 -75.22554 13041 ft 198 kts 10°
2026-05-03 21:14 38.37929 -75.21929 13047 ft 199 kts 10°
2026-05-03 21:14 38.39223 -75.21304 13043 ft 199 kts 10°
2026-05-03 21:14 38.40514 -75.20678 13043 ft 199 kts 10°
2026-05-03 21:14 38.41807 -75.20051 13043 ft 199 kts 10°
2026-05-03 21:15 38.43101 -75.19425 13046 ft 199 kts 10°
2026-05-03 21:15 38.44391 -75.18799 13049 ft 199 kts 10°
2026-05-03 21:15 38.45683 -75.18173 13032 ft 199 kts 10°
2026-05-03 21:15 38.46970 -75.17550 12948 ft 203 kts 10°
2026-05-03 21:16 38.48315 -75.16900 12820 ft 206 kts 11°
2026-05-03 21:16 38.49669 -75.16242 12689 ft 209 kts 11°
2026-05-03 21:16 38.51031 -75.15579 12558 ft 210 kts 11°
2026-05-03 21:16 38.52400 -75.14913 12430 ft 211 kts 11°
2026-05-03 21:17 38.53775 -75.14243 12301 ft 211 kts 11°
2026-05-03 21:17 38.54689 -75.13800 12209 ft 212 kts 11°
2026-05-03 21:17 38.56512 -75.12913 12041 ft 212 kts 11°
2026-05-03 21:17 38.57894 -75.12240 11913 ft 213 kts 12°
2026-05-03 21:18 38.59274 -75.11568 11791 ft 213 kts 12°
2026-05-03 21:18 38.60675 -75.10886 11660 ft 213 kts 12°
2026-05-03 21:18 38.62058 -75.10212 11533 ft 213 kts 12°
2026-05-03 21:18 38.63441 -75.09538 11406 ft 213 kts 12°
2026-05-03 21:19 38.64798 -75.08763 11282 ft 218 kts 23°
2026-05-03 21:19 38.65992 -75.07551 11165 ft 224 kts 34°
2026-05-03 21:19 38.67162 -75.06198 11035 ft 224 kts 33°
2026-05-03 21:19 38.68306 -75.04884 10912 ft 224 kts 33°
2026-05-03 21:20 38.69477 -75.03540 10791 ft 223 kts 33°
2026-05-03 21:20 38.70616 -75.02230 10668 ft 223 kts 33°
2026-05-03 21:20 38.71784 -75.00885 10544 ft 223 kts 34°
2026-05-03 21:20 38.72919 -74.99579 10429 ft 222 kts 34°
2026-05-03 21:21 38.74067 -74.98257 10301 ft 222 kts 34°
2026-05-03 21:21 38.75212 -74.96936 10181 ft 221 kts 34°
2026-05-03 21:21 38.76354 -74.95622 10060 ft 221 kts 34°
2026-05-03 21:21 38.77492 -74.94309 9935 ft 220 kts 34°
2026-05-03 21:22 38.78633 -74.93007 9805 ft 218 kts 31°
2026-05-03 21:22 38.79816 -74.91800 9669 ft 217 kts 31°
2026-05-03 21:22 38.80991 -74.90579 9530 ft 217 kts 31°
2026-05-03 21:22 38.82160 -74.89360 9398 ft 216 kts 31°
2026-05-03 21:23 38.83329 -74.88148 9261 ft 216 kts 31°
2026-05-03 21:23 38.84491 -74.86943 9130 ft 215 kts 31°
2026-05-03 21:23 38.85655 -74.85736 8995 ft 214 kts 31°
2026-05-03 21:23 38.86813 -74.84534 8862 ft 214 kts 31°
2026-05-03 21:24 38.87968 -74.83335 8729 ft 213 kts 31°
2026-05-03 21:24 38.89119 -74.82139 8600 ft 213 kts 31°
2026-05-03 21:24 38.90269 -74.80943 8467 ft 212 kts 31°
2026-05-03 21:24 38.91413 -74.79753 8337 ft 212 kts 31°
2026-05-03 21:25 38.92554 -74.78566 8208 ft 211 kts 31°
2026-05-03 21:25 38.93691 -74.77383 8078 ft 210 kts 31°
2026-05-03 21:25 38.94828 -74.76199 7951 ft 210 kts 31°
2026-05-03 21:25 38.95976 -74.75003 7819 ft 210 kts 31°
2026-05-03 21:26 38.97108 -74.73823 7689 ft 209 kts 31°
2026-05-03 21:26 38.98230 -74.72644 7566 ft 208 kts 31°
2026-05-03 21:26 38.99354 -74.71464 7437 ft 208 kts 31°
2026-05-03 21:26 39.00472 -74.70290 7313 ft 207 kts 31°
2026-05-03 21:27 39.01590 -74.69117 7185 ft 207 kts 31°
2026-05-03 21:27 39.02702 -74.67948 7061 ft 206 kts 31°
2026-05-03 21:27 39.03814 -74.66780 6939 ft 206 kts 31°
2026-05-03 21:27 39.04920 -74.65618 6811 ft 205 kts 31°
2026-05-03 21:28 39.06026 -74.64453 6687 ft 205 kts 31°
2026-05-03 21:28 39.07139 -74.63282 6560 ft 204 kts 32°
2026-05-03 21:28 39.08247 -74.62117 6433 ft 204 kts 31°
2026-05-03 21:28 39.09318 -74.60988 6303 ft 203 kts 32°
2026-05-03 21:29 39.10408 -74.59840 6175 ft 203 kts 32°
2026-05-03 21:29 39.11515 -74.58675 6041 ft 202 kts 32°
2026-05-03 21:29 39.12590 -74.57540 5906 ft 202 kts 32°
2026-05-03 21:29 39.13689 -74.56381 5771 ft 202 kts 32°
2026-05-03 21:30 39.14775 -74.55231 5644 ft 202 kts 33°
2026-05-03 21:30 39.15845 -74.54057 5508 ft 202 kts 33°
2026-05-03 21:30 39.16916 -74.52885 5370 ft 202 kts 33°
2026-05-03 21:30 39.17990 -74.51717 5243 ft 202 kts 33°
2026-05-03 21:31 39.19065 -74.50547 5113 ft 202 kts 33°
2026-05-03 21:31 39.20134 -74.49381 5004 ft 200 kts 33°
2026-05-03 21:31 39.21185 -74.48236 5004 ft 196 kts 33°
2026-05-03 21:31 39.22217 -74.47110 5002 ft 193 kts 33°
2026-05-03 21:32 39.23241 -74.45994 5003 ft 192 kts 33°
2026-05-03 21:32 39.24259 -74.44884 4998 ft 191 kts 33°
2026-05-03 21:32 39.25274 -74.43778 5001 ft 191 kts 33°
2026-05-03 21:32 39.26289 -74.42669 5002 ft 191 kts 33°
2026-05-03 21:33 39.27306 -74.41558 4999 ft 192 kts 33°
2026-05-03 21:33 39.28324 -74.40446 4998 ft 192 kts 33°
2026-05-03 21:33 39.29337 -74.39330 4998 ft 192 kts 33°
2026-05-03 21:33 39.30356 -74.38209 4998 ft 192 kts 33°
2026-05-03 21:34 39.31374 -74.37089 4999 ft 192 kts 33°
2026-05-03 21:34 39.32389 -74.35973 4998 ft 192 kts 33°
2026-05-03 21:34 39.33408 -74.34851 4998 ft 192 kts 33°
2026-05-03 21:34 39.34425 -74.33731 4996 ft 192 kts 33°
2026-05-03 21:35 39.35440 -74.32613 4994 ft 191 kts 33°
2026-05-03 21:35 39.36451 -74.31499 4996 ft 191 kts 33°
2026-05-03 21:35 39.37480 -74.30365 4998 ft 191 kts 33°
2026-05-03 21:35 39.38492 -74.29248 4997 ft 192 kts 33°
2026-05-03 21:36 39.39507 -74.28129 4998 ft 192 kts 33°
2026-05-03 21:36 39.40516 -74.27016 4998 ft 191 kts 33°
2026-05-03 21:36 39.41533 -74.25891 4998 ft 192 kts 33°
2026-05-03 21:36 39.42550 -74.24769 4999 ft 192 kts 33°
2026-05-03 21:37 39.43567 -74.23645 4998 ft 192 kts 33°
2026-05-03 21:37 39.44584 -74.22521 4998 ft 192 kts 33°
2026-05-03 21:37 39.45597 -74.21399 4999 ft 191 kts 33°
2026-05-03 21:37 39.46607 -74.20277 4999 ft 192 kts 33°
2026-05-03 21:38 39.47618 -74.19153 5000 ft 191 kts 33°
2026-05-03 21:38 39.48625 -74.18032 4999 ft 192 kts 33°
2026-05-03 21:38 39.49639 -74.16904 5001 ft 192 kts 33°
2026-05-03 21:38 39.50638 -74.15792 5000 ft 192 kts 33°
2026-05-03 21:39 39.51662 -74.14652 5005 ft 192 kts 33°
2026-05-03 21:39 39.52626 -74.13482 5000 ft 196 kts 43°
2026-05-03 21:39 39.53481 -74.12104 5001 ft 196 kts 43°
2026-05-03 21:39 39.54369 -74.10727 5002 ft 196 kts 43°
2026-05-03 21:40 39.55241 -74.09370 5005 ft 196 kts 43°
2026-05-03 21:40 39.56110 -74.08011 4997 ft 196 kts 43°
2026-05-03 21:40 39.56978 -74.06650 5003 ft 196 kts 43°
2026-05-03 21:40 39.57849 -74.05287 5001 ft 196 kts 43°
2026-05-03 21:41 39.58718 -74.03926 4999 ft 196 kts 43°
2026-05-03 21:41 39.59576 -74.02583 4999 ft 196 kts 43°
2026-05-03 21:41 39.60446 -74.01218 5000 ft 196 kts 43°
2026-05-03 21:41 39.61315 -73.99854 5002 ft 196 kts 43°
2026-05-03 21:42 39.62185 -73.98491 5000 ft 196 kts 43°
2026-05-03 21:42 39.63055 -73.97125 4998 ft 196 kts 43°
2026-05-03 21:42 39.63925 -73.95758 5000 ft 197 kts 43°
2026-05-03 21:42 39.64794 -73.94392 4995 ft 196 kts 43°
2026-05-03 21:43 39.65664 -73.93024 4997 ft 196 kts 43°
2026-05-03 21:43 39.66543 -73.91643 5001 ft 196 kts 43°
2026-05-03 21:43 39.67398 -73.90297 4999 ft 196 kts 43°
2026-05-03 21:43 39.68278 -73.88911 4995 ft 196 kts 43°
2026-05-03 21:44 39.69136 -73.87562 4996 ft 197 kts 43°
2026-05-03 21:44 39.70004 -73.86193 4998 ft 197 kts 43°
2026-05-03 21:44 39.70874 -73.84822 4997 ft 197 kts 43°
2026-05-03 21:44 39.71746 -73.83448 4997 ft 198 kts 43°
2026-05-03 21:45 39.72619 -73.82070 4995 ft 198 kts 43°
2026-05-03 21:45 39.73491 -73.80693 4991 ft 197 kts 43°
2026-05-03 21:45 39.74364 -73.79316 4993 ft 198 kts 43°
2026-05-03 21:45 39.75237 -73.77937 4990 ft 197 kts 43°
2026-05-03 21:46 39.76109 -73.76559 4992 ft 197 kts 43°
2026-05-03 21:46 39.76698 -73.75628 4992 ft 197 kts 43°
2026-05-03 21:46 39.77567 -73.74254 4997 ft 197 kts 43°
2026-05-03 21:46 39.78437 -73.72876 4995 ft 197 kts 43°
2026-05-03 21:47 39.79309 -73.71496 4991 ft 197 kts 43°
2026-05-03 21:47 39.80178 -73.70121 4995 ft 197 kts 43°
2026-05-03 21:47 39.80953 -73.68892 4989 ft 197 kts 43°
2026-05-03 21:47 39.81844 -73.67479 4990 ft 197 kts 43°
2026-05-03 21:48 39.82716 -73.66097 4988 ft 197 kts 43°
2026-05-03 21:48 39.83585 -73.64719 4987 ft 197 kts 43°
2026-05-03 21:48 39.84454 -73.63340 4989 ft 197 kts 43°
2026-05-03 21:48 39.85322 -73.61962 4989 ft 197 kts 43°
2026-05-03 21:49 39.86191 -73.60581 4990 ft 197 kts 43°
2026-05-03 21:49 39.87060 -73.59202 4991 ft 197 kts 43°
2026-05-03 21:49 39.87931 -73.57817 4985 ft 197 kts 43°
2026-05-03 21:49 39.88797 -73.56437 4985 ft 197 kts 43°
2026-05-03 21:50 39.89667 -73.55054 4990 ft 197 kts 43°
2026-05-03 21:50 39.90577 -73.53743 4982 ft 192 kts 33°
2026-05-03 21:50 39.91579 -73.52591 4984 ft 193 kts 34°
2026-05-03 21:50 39.92572 -73.51414 4986 ft 193 kts 34°
2026-05-03 21:51 39.93564 -73.50238 4985 ft 193 kts 34°
2026-05-03 21:51 39.94557 -73.49063 4982 ft 192 kts 34°
2026-05-03 21:51 39.95547 -73.47895 4987 ft 192 kts 34°
2026-05-03 21:51 39.96541 -73.46720 4991 ft 193 kts 33°
2026-05-03 21:52 39.97532 -73.45547 4984 ft 193 kts 34°
2026-05-03 21:52 39.98526 -73.44372 4988 ft 193 kts 34°
2026-05-03 21:52 39.99518 -73.43198 4982 ft 192 kts 34°
2026-05-03 21:52 40.00511 -73.42021 4983 ft 193 kts 34°
2026-05-03 21:53 40.01502 -73.40847 4975 ft 193 kts 33°
2026-05-03 21:53 40.02493 -73.39673 4986 ft 193 kts 33°
2026-05-03 21:53 40.03484 -73.38498 4972 ft 192 kts 34°
2026-05-03 21:53 40.04470 -73.37328 4980 ft 192 kts 33°
2026-05-03 21:54 40.05459 -73.36155 4973 ft 192 kts 34°
2026-05-03 21:54 40.06439 -73.34991 5046 ft 188 kts 34°
2026-05-03 21:54 40.07406 -73.33843 5061 ft 189 kts 33°
2026-05-03 21:54 40.08399 -73.32665 5060 ft 191 kts 33°
2026-05-03 21:55 40.09383 -73.31496 5054 ft 191 kts 34°
2026-05-03 21:55 40.10366 -73.30326 5061 ft 192 kts 34°
2026-05-03 21:55 40.11352 -73.29154 5064 ft 192 kts 33°
2026-05-03 21:55 40.12337 -73.27980 5063 ft 192 kts 34°
2026-05-03 21:56 40.13324 -73.26805 5063 ft 192 kts 34°
2026-05-03 21:56 40.14309 -73.25631 5060 ft 192 kts 33°
2026-05-03 21:56 40.15296 -73.24453 5062 ft 192 kts 33°
2026-05-03 21:56 40.16283 -73.23276 5061 ft 192 kts 33°
2026-05-03 21:57 40.17268 -73.22103 5053 ft 192 kts 33°
2026-05-03 21:57 40.18254 -73.20925 5054 ft 192 kts 33°
2026-05-03 21:57 40.19239 -73.19749 5060 ft 192 kts 34°
2026-05-03 21:57 40.20223 -73.18573 5052 ft 192 kts 34°
2026-05-03 21:58 40.21208 -73.17396 5058 ft 192 kts 34°
2026-05-03 21:58 40.22194 -73.16216 5054 ft 192 kts 34°
2026-05-03 21:58 40.23179 -73.15039 5050 ft 192 kts 34°
2026-05-03 21:58 40.24165 -73.13860 5058 ft 192 kts 33°
2026-05-03 21:59 40.25149 -73.12681 5052 ft 192 kts 33°
2026-05-03 21:59 40.26134 -73.11501 5053 ft 192 kts 33°
2026-05-03 21:59 40.27120 -73.10322 5053 ft 192 kts 33°
2026-05-03 21:59 40.28104 -73.09143 5057 ft 192 kts 33°
2026-05-03 22:00 40.29088 -73.07964 5051 ft 192 kts 33°
2026-05-03 22:00 40.30075 -73.06780 5051 ft 192 kts 34°
2026-05-03 22:00 40.31075 -73.05583 5052 ft 192 kts 33°
2026-05-03 22:00 40.32059 -73.04402 5047 ft 192 kts 33°
2026-05-03 22:01 40.33043 -73.03220 5045 ft 192 kts 34°
2026-05-03 22:01 40.34027 -73.02041 5050 ft 192 kts 34°
2026-05-03 22:01 40.35013 -73.00857 5042 ft 192 kts 33°
2026-05-03 22:01 40.35999 -72.99672 5046 ft 192 kts 33°
2026-05-03 22:02 40.36983 -72.98490 5046 ft 192 kts 34°
2026-05-03 22:02 40.37967 -72.97309 5045 ft 192 kts 34°
2026-05-03 22:02 40.38953 -72.96123 5041 ft 192 kts 34°
2026-05-03 22:02 40.39938 -72.94936 5045 ft 192 kts 34°
2026-05-03 22:03 40.40925 -72.93749 5046 ft 193 kts 34°
2026-05-03 22:03 40.41914 -72.92560 5007 ft 195 kts 34°
2026-05-03 22:03 40.42921 -72.91348 4908 ft 198 kts 34°
2026-05-03 22:03 40.43937 -72.90122 4780 ft 200 kts 34°
2026-05-03 22:04 40.44965 -72.88883 4616 ft 202 kts 34°
2026-05-03 22:04 40.46010 -72.87621 4405 ft 205 kts 34°
2026-05-03 22:04 40.47063 -72.86349 4188 ft 206 kts 35°
2026-05-03 22:04 40.48116 -72.85074 3981 ft 205 kts 34°
2026-05-03 22:05 40.49166 -72.83806 3774 ft 205 kts 35°
2026-05-03 22:05 40.50215 -72.82538 3567 ft 205 kts 34°
2026-05-03 22:05 40.51261 -72.81273 3369 ft 204 kts 34°
2026-05-03 22:05 40.52426 -72.80311 3163 ft 194 kts 13°
2026-05-03 22:06 40.53711 -72.79896 2952 ft 186 kts 357°
2026-05-03 22:06 40.54974 -72.80012 2748 ft 179 kts 342°
2026-05-03 22:06 40.56120 -72.80591 2542 ft 175 kts 327°
2026-05-03 22:06 40.57086 -72.81569 2335 ft 173 kts 314°
2026-05-03 22:07 40.57957 -72.82664 2129 ft 173 kts 315°
2026-05-03 22:07 40.58821 -72.83741 2034 ft 168 kts 315°
2026-05-03 22:07 40.59654 -72.84782 2033 ft 162 kts 315°
2026-05-03 22:07 40.60461 -72.85794 2034 ft 160 kts 315°
2026-05-03 22:08 40.61265 -72.86804 2032 ft 160 kts 315°
2026-05-03 22:08 40.62068 -72.87810 2031 ft 160 kts 315°
2026-05-03 22:08 40.62872 -72.88819 2029 ft 159 kts 315°
2026-05-03 22:08 40.63673 -72.89825 2027 ft 159 kts 315°
2026-05-03 22:09 40.64452 -72.90802 2026 ft 149 kts 315°
2026-05-03 22:09 40.65173 -72.91707 2025 ft 143 kts 315°
2026-05-03 22:09 40.65895 -72.92615 2019 ft 139 kts 315°
2026-05-03 22:10 40.67308 -72.94394 1774 ft 144 kts 315°
2026-05-03 22:10 40.68040 -72.95312 1642 ft 146 kts 314°
2026-05-03 22:10 40.68769 -72.96232 1513 ft 144 kts 315°
2026-05-03 22:10 40.69482 -72.97128 1517 ft 139 kts 315°
2026-05-03 22:11 40.70188 -72.98016 1510 ft 138 kts 315°
2026-05-03 22:11 40.70836 -72.98830 1490 ft 115 kts 314°
2026-05-03 22:11 40.71391 -72.99529 1504 ft 105 kts 314°
2026-05-03 22:11 40.71892 -73.00160 1498 ft 96 kts 314°
2026-05-03 22:12 40.72359 -73.00749 1502 ft 90 kts 313°
2026-05-03 22:12 40.72803 -73.01310 1497 ft 87 kts 313°
2026-05-03 22:12 40.73232 -73.01852 1501 ft 85 kts 312°
2026-05-03 22:12 40.73653 -73.02380 1489 ft 85 kts 313°
2026-05-03 22:13 40.74099 -73.02929 1446 ft 88 kts 314°
2026-05-03 22:13 40.74548 -73.03479 1401 ft 89 kts 314°
2026-05-03 22:13 40.75014 -73.04034 1340 ft 89 kts 314°
2026-05-03 22:13 40.75429 -73.04549 1284 ft 78 kts 311°
2026-05-03 22:14 40.75827 -73.05011 1181 ft 75 kts 315°
2026-05-03 22:14 40.76218 -73.05444 1094 ft 73 kts 315°
2026-05-03 22:14 40.76588 -73.05912 1044 ft 76 kts 314°
2026-05-03 22:14 40.76946 -73.06428 981 ft 76 kts 310°
2026-05-03 22:15 40.77319 -73.06914 923 ft 77 kts 316°
2026-05-03 22:15 40.77714 -73.07403 787 ft 74 kts 310°
2026-05-03 22:15 40.78077 -73.07866 653 ft 72 kts 310°
2026-05-03 22:15 40.78433 -73.08334 534 ft 73 kts 309°
2026-05-03 22:16 40.78779 -73.08809 333 ft 70 kts 311°
2026-05-03 22:16 40.79109 -73.09263 173 ft 64 kts 313°
2026-05-03 22:16 40.79406 -73.09661 96 ft 57 kts 315°
2026-05-03 22:16 40.79615 -73.09934 93 ft 2 kts 315°
2026-05-03 22:17 40.79638 -73.09966 94 ft 14 kts 309°
2026-05-03 22:17 40.79634 -73.10024 94 ft 14 kts 225°
2026-05-03 22:17 40.79570 -73.10097 95 ft 4 kts 185°
2026-05-03 22:17 40.79458 -73.10096 94 ft 24 kts 180°
2026-05-03 22:18 40.79286 -73.10095 91 ft 24 kts 179°
2026-05-03 22:18 40.79145 -73.10096 91 ft 15 kts 178°
2026-05-03 22:18 40.79050 -73.10097 91 ft 12 kts 188°
2026-05-03 22:18 40.79031 -73.10105 91 ft 0 kts 204°